K7JKM Weather Reports


Display with metric or nautical units.
time (UTC)temp
F
wind
direction
speed
MPH
gust
MPH
rain 1hr
in
rain 24hr
in
rain mn
in
humidity
%
barometer
mb
20260902063017 61 109 0.0 2.0 0.00 0.00 0.00 63 1012.2
20260902061544 62 96 0.0 1.0 0.00 0.00 0.00 63 1012.3
20260902060035 62 132 0.0 1.0 0.00 0.00 0.00 62 1012.3
20260902054535 62 179 0.0 1.0 0.00 0.00 0.00 62 1012.4
20260902053008 62 131 0.0 0.0 0.00 0.00 0.00 62 1012.6
20260902051504 62 132 0.0 0.0 0.00 0.00 0.00 62 1012.7
20260902050009 62 133 0.0 0.0 0.00 0.00 0.00 61 1012.7
20260902044504 62 138 0.0 1.0 0.00 0.00 0.00 61 1012.6
20260902043003 62 146 0.0 1.0 0.00 0.00 0.00 61 1012.5
20260902041516 63 124 0.0 1.0 0.00 0.00 0.00 60 1012.6
20260902040013 63 144 0.0 1.0 0.00 0.00 0.00 60 1012.6
20260902034512 63 151 0.0 1.0 0.00 0.00 0.00 59 1012.5
20260902033012 63 132 0.0 3.0 0.00 0.00 0.00 59 1012.5
20260902031504 63 195 0.0 1.0 0.00 0.00 0.00 59 1012.5
20260902030004 63 110 0.0 0.0 0.00 0.00 0.00 58 1012.3
20260902024504 64 160 0.0 0.0 0.00 0.00 0.00 58 1012.3
20260902023021 64 143 0.0 0.0 0.00 0.00 0.00 58 1012.4
20260902021524 64 133 0.0 1.0 0.00 0.00 0.00 58 1012.3
20260902020014 64 111 0.0 1.0 0.00 0.00 0.00 58 1012.3
20260902014512 64 114 0.0 1.0 0.00 0.00 0.00 58 1012.3
20260902013009 64 195 0.0 2.0 0.00 0.00 0.00 58 1012.3
20260902011504 65 231 0.0 2.0 0.00 0.00 0.00 57 1012.3
20260902010007 65 177 0.0 3.0 0.00 0.00 0.00 56 1011.9
20260902004526 65 299 0.0 4.0 0.00 0.00 0.00 56 1011.9
20260902003021 65 283 0.0 4.0 0.00 0.00 0.00 56 1011.8
20260902001516 65 309 1.0 4.0 0.00 0.00 0.00 56 1011.8
20260902000017 66 296 0.0 3.0 0.00 0.00 0.00 56 1011.7
20260901234510 67 283 0.0 2.0 0.00 0.00 0.00 51 1011.7
20260901233016 67 212 0.0 3.0 0.00 0.00 0.00 52 1011.7
20260901231506 67 86 0.0 1.0 0.00 0.00 0.00 51 1011.8
20260901230033 67 32 0.0 1.0 0.00 0.00 0.00 52 1011.9
20260901224535 67 148 0.0 0.0 0.00 0.00 0.00 53 1011.9
20260901223025 67 139 0.0 2.0 0.00 0.00 0.00 53 1011.9
20260901221520 67 188 0.0 1.0 0.00 0.00 0.00 52 1012.0
20260901220015 67 161 0.0 2.0 0.00 0.00 0.00 52 1011.9
20260901214511 68 119 0.0 2.0 0.00 0.00 0.00 52 1011.8
20260901213011 68 113 0.0 1.0 0.00 0.00 0.00 52 1011.8
20260901211534 68 200 0.0 2.0 0.00 0.00 0.00 52 1011.7
20260901210031 68 106 0.0 1.0 0.00 0.00 0.00 53 1011.7
20260901204527 68 146 0.0 1.0 0.00 0.00 0.00 52 1011.7
20260901203026 68 233 0.0 1.0 0.00 0.00 0.00 53 1011.8
20260901201520 68 245 0.0 4.0 0.00 0.00 0.00 53 1011.8
20260901200009 67 160 0.0 1.0 0.00 0.00 0.00 54 1011.9
20260901194512 67 165 0.0 1.0 0.00 0.00 0.00 54 1012.0
20260901193008 67 110 0.0 3.0 0.00 0.00 0.00 53 1012.0
20260901191509 68 167 0.0 4.0 0.00 0.00 0.00 55 1012.2
20260901190008 67 205 0.0 3.0 0.00 0.00 0.00 55 1012.4
20260901184504 66 116 0.0 1.0 0.00 0.00 0.00 57 1012.4
20260901183003 66 137 0.0 4.0 0.00 0.00 0.00 56 1012.5
20260901181511 67 175 0.0 1.0 0.00 0.00 0.00 55 1012.5
20260901180012 68 236 0.0 5.0 0.00 0.00 0.00 54 1012.5
20260901174518 67 216 0.0 5.0 0.00 0.00 0.00 58 1012.7
20260901173023 66 118 0.0 6.0 0.00 0.00 0.00 60 1012.7
20260901171509 64 146 0.0 3.0 0.00 0.00 0.00 61 1012.6
20260901170008 63 121 0.0 3.0 0.00 0.00 0.00 63 1012.6
20260901164506 62 135 0.0 4.0 0.00 0.00 0.00 64 1012.7
20260901163017 61 158 0.0 4.0 0.00 0.00 0.00 65 1012.8
20260901161519 61 70 0.0 2.0 0.00 0.00 0.00 65 1013.0
20260901160019 61 119 0.0 2.0 0.00 0.00 0.00 65 1012.9
20260901154521 61 117 0.0 2.0 0.00 0.00 0.00 65 1012.8
20260901153017 61 94 0.0 2.0 0.00 0.00 0.00 64 1012.8
20260901151521 61 162 0.0 1.0 0.00 0.00 0.00 63 1012.8
20260901150012 61 110 0.0 3.0 0.00 0.00 0.00 63 1012.7
20260901144523 60 134 0.0 2.0 0.00 0.00 0.00 63 1012.5
20260901143028 60 186 0.0 5.0 0.00 0.00 0.00 63 1012.5
20260901141527 60 116 0.0 0.0 0.00 0.00 0.00 64 1012.4
20260901140031 60 117 0.0 0.0 0.00 0.00 0.00 64 1012.3
20260901134522 59 117 0.0 0.0 0.00 0.00 0.00 64 1012.2
20260901133025 59 116 0.0 0.0 0.00 0.00 0.00 64 1012.2
20260901131515 59 117 0.0 0.0 0.00 0.00 0.00 64 1012.2
20260901130013 59 116 0.0 0.0 0.00 0.00 0.00 64 1012.1
20260901124512 59 117 0.0 1.0 0.00 0.00 0.00 64 1012.0
20260901123004 59 113 0.0 0.0 0.00 0.00 0.00 65 1012.0
20260901121503 59 110 0.0 2.0 0.00 0.00 0.00 64 1012.1
20260901120003 59 117 0.0 0.0 0.00 0.00 0.00 65 1012.0
20260901114523 59 112 0.0 1.0 0.00 0.00 0.00 65 1012.0
20260901113021 59 106 0.0 0.0 0.00 0.00 0.00 65 1011.8
20260901111517 59 115 0.0 1.0 0.00 0.00 0.00 65 1011.8
20260901110023 58 116 0.0 0.0 0.00 0.00 0.00 66 1011.6
20260901104510 58 164 0.0 0.0 0.00 0.00 0.00 67 1011.6
20260901103011 57 164 0.0 0.0 0.00 0.00 0.00 67 1011.5
20260901101529 57 164 0.0 0.0 0.00 0.00 0.00 67 1011.5
20260901100031 57 137 0.0 1.0 0.00 0.00 0.00 67 1011.5
20260901094527 58 136 0.0 1.0 0.00 0.00 0.00 67 1011.5
20260901093023 58 141 0.0 0.0 0.00 0.00 0.00 67 1011.6
20260901091516 58 86 0.0 1.0 0.00 0.00 0.00 67 1011.4
20260901090016 58 342 0.0 0.0 0.00 0.00 0.00 67 1011.3
20260901084513 58 149 0.0 0.0 0.00 0.00 0.00 67 1011.3
20260901083032 58 149 0.0 0.0 0.00 0.00 0.00 66 1011.3
20260901081530 58 184 0.0 0.0 0.00 0.00 0.00 66 1011.3
20260901080032 59 184 0.0 0.0 0.00 0.00 0.00 66 1011.3
20260901074527 59 169 0.0 0.0 0.00 0.00 0.00 66 1011.3
20260901073025 59 143 0.0 0.0 0.00 0.00 0.00 66 1011.1
20260901071526 59 172 0.0 1.0 0.00 0.00 0.00 66 1011.1
20260901070017 59 115 0.0 1.0 0.00 0.00 0.00 65 1011.1
20260901064542 60 184 0.0 1.0 0.00 0.00 0.00 65 1011.0